Location: Hoover
(45.1124°N, 103.2678°W)
Time: 05:10:51
(UTC+00:00)

ISS - Visible Passes

Search period start: 25 November 2020 00:00
Search period end: 05 December 2020 00:00
Orbit: 418 x 421 km, 51.6° (Epoch: 25 November)

Date Brightness Start Highest point End Pass type
(mag) Time Alt. Az. Time Alt. Az. Time Alt. Az.
25 Nov -3.1 00:54:17 10° W 00:57:34 47° NNW 00:58:22 38° NNE visible
26 Nov -3.6 00:06:41 10° WSW 00:10:02 67° NNW 00:12:48 14° NE visible
26 Nov -1.3 01:44:19 10° WNW 01:45:45 19° NW 01:45:45 19° NW visible
27 Nov -2.5 00:56:35 10° WNW 00:59:37 30° NNW 01:00:09 29° N visible
28 Nov -2.7 00:08:50 10° W 00:11:59 36° NNW 00:14:31 14° NE visible
28 Nov -1.1 01:46:30 10° NW 01:47:29 16° NW 01:47:29 16° NW visible
29 Nov -2.3 00:58:50 10° WNW 01:01:43 26° N 01:01:50 26° N visible
30 Nov -2.4 00:11:07 10° WNW 00:14:03 27° N 00:16:12 15° NE visible
30 Nov -1.0 01:48:24 10° NW 01:49:10 15° NW 01:49:10 15° NW visible
01 Dec -2.4 01:00:50 10° NW 01:03:32 27° N 01:03:32 27° N visible
02 Dec -2.4 00:13:12 10° NW 00:16:06 26° N 00:17:56 17° NE visible
02 Dec -1.0 01:50:06 10° NW 01:50:54 16° NW 01:50:54 16° NW visible
03 Dec -2.9 01:02:34 10° NW 01:05:21 37° N 01:05:21 37° N visible
04 Dec -2.8 00:15:01 10° NW 00:18:06 32° NNE 00:19:53 19° ENE visible
04 Dec -1.1 01:51:46 10° WNW 01:52:51 19° WNW 01:52:51 19° WNW visible
